Location: Bayshore Village Mobile Home Park
(26.6945°N, 81.8642°W)
Time: 01:09:34
(UTC+00:00)

Hubble Space Telescope - Pass Details

Date: 28 October 2021
Orbit: 534 x 538 km, 28.5° (Epoch: 30 November)

Event Time Altitude Azimuth Distance (km) Brightness Sun altitude
Rises 23:21:58 0° 237° (WSW) 2,658 5.8 -8.4°
Reaches altitude 10° 23:24:18 10° 230° (SW) 1,770 4.5 -8.9°
Maximum altitude 23:28:10 41° 160° (SSE) 776 1.5 -9.7°
Enters shadow 23:31:23 14° 92° (E) 1,538 2.5 -10.4°
